Regional Weather Roundup
Issued by NWS Goodland, KS

Home | Current Version | Previous Version | Graphics & Text | Print | Product List | Glossary On
Versions: 1 2 3 4 5 6 7 8 9 10 11 12 13 14 15 16 17 18 19 20 21 22 23 24 25 26 27 28 29 30 31 32 33 34 35 36 37 38 39 40 41 42 43 44 45 46 47 48 49 50
000
ASUS43 KGLD 272008
RWRGLD

GOODLAND FORECAST AREA HOURLY WEATHER ROUNDUP
NATIONAL WEATHER SERVICE GOODLAND KS
200 PM MDT WED AUG 27 2014

...OFFICIAL OBSERVATIONS...

CITY           SKY/WX    TMP DP  RH WIND       PRES   REMARKS
GOODLAND KS    PTSUNNY   78  64  61 S13       30.10F
HILL CITY KS   CLOUDY    82  65  56 SE10      30.05F
IMPERIAL NEB   PTSUNNY   77  66  68 SE9       30.06F
MCCOOK NEB     CLOUDY    79  66  64 E13       30.07F
AKRON CO       PTSUNNY   75  60  59 SE10      30.10F
BURLINGTON CO  PTSUNNY   77  62  59 S16       30.10F
LIMON CO       SUNNY     77  55  46 S8        30.14F
$$

...UNOFFICIAL OBSERVATIONS...

CITY           SKY/WX    TMP DP  RH WIND       PRES   REMARKS
COLBY KS       PTSUNNY   77  70  78 S8        30.09F
GOVE KS          N/A     84  32  15 CALM        N/A
NORTON KS      CLOUDY    81  57  44 SE12      30.06F
SHARON SPRINGS   N/A     75  67  76 SE8         N/A
WAKEENEY KS      N/A     74  63  67 MISG        N/A
KIT CARSON CO    N/A     80  61  51 MISG        N/A
YUMA CO          N/A     79  62  56 SE9         N/A
$$


USA.gov is the U.S. government's official web portal to all federal, state and local government web resources and services.